Regional Weather Roundup
Issued by NWS

Home | Current Version | Previous Version | Text Only | Print | Product List | Glossary On
Versions: 1 2 3 4 5 6 7 8 9 10 11 12 13 14 15 16 17 18 19 20 21 22 23 24 25 26 27 28 29 30 31 32 33 34 35 36 37 38 39 40 41 42 43 44 45 46 47 48 49 50
000
ASUS45 KBOI 272210
RWRID

IDAHO REGIONAL WEATHER ROUNDUP
NATIONAL WEATHER SERVICE BOISE ID
400 PM MDT TUE JUN 27 2017

NOTE: "FAIR" INDICATES FEW OR NO CLOUDS BELOW 12000 FEET
WITH NO SIGNIFICANT WEATHER AND/OR OBSTRUCTIONS TO VISIBILITY

IDZ012-014-272300-
SOUTHWEST IDAHO


CITY           SKY/WX    TMP DP  RH WIND       PRES   REMARKS
BOISE          FAIR      87  45  23 NW12G17   29.86F
CALDWELL       FAIR      88  45  22 W8        29.84F
MOUNTAIN HOME  FAIR      86  45  23 W9        29.86F
$$

IDZ016-017-272300-
SOUTHCENTRAL IDAHO


CITY           SKY/WX    TMP DP  RH WIND       PRES   REMARKS
BURLEY         FAIR      82  40  22 W20G26    29.93F
JEROME         FAIR      84  40  21 W17G26    29.93F
TWIN FALLS     FAIR      85  40  20 W16G23    29.94F
$$

IDZ019>023-272300-
SOUTHEAST IDAHO


CITY           SKY/WX    TMP DP  RH WIND       PRES   REMARKS
IDAHO FALLS    MOSUNNY   78  49  35 SW7G16    29.92F
POCATELLO      MOSUNNY   84  40  21 SW23      29.93F
REXBURG        CLOUDY    67  45  45 E12G17    29.96S
$$

IDZ006-010-011-018-031-032-272300-
CENTRAL IDAHO MOUNTAINS


CITY           SKY/WX    TMP DP  RH WIND       PRES   REMARKS
MCCALL         CLOUDY    72  45  37 W9        29.95F
HAILEY         MOSUNNY   81  39  22 SW9       29.95F
STANLEY          N/A     73  32  22 W8        30.04F
SALMON         PTSUNNY   72  48  43 SW12      29.89R
CHALLIS        PTSUNNY   74  43  32 NE15G23   29.91S
$$

IDZ002-004-006-007-026-272300-
NORTHERN IDAHO


CITY           SKY/WX    TMP DP  RH WIND       PRES   REMARKS
LEWISTON       FAIR      85  41  21 NW10      29.83F
LOWELL           N/A     88  45  22 VRB5      29.81F
COEUR D`ALENE  FAIR      79  47  32 SW10      29.87F
MULLAN PASS    FAIR      65  44  46 VRB7G16   30.01F
$$



USA.gov is the U.S. government's official web portal to all federal, state and local government web resources and services.